SITE: BDASc,YEAR: 2011,,,,,,
2011date,time,pzhd (cm),gw temp (C),DWT (cm),WT elev (m),,
01/01/11,0:00,305.0,13.3,114.9,1372.280,,Depth to water table:
01/01/11,0:30,304.9,13.3,115.0,1372.279,,DWT = SCL - CH - h (all values in cm)
01/01/11,1:00,304.8,13.3,115.1,1372.278,,where
01/01/11,1:30,304.6,13.3,115.3,1372.276,,SCL = sensor cable length = 569.6 cm
01/01/11,2:00,304.4,13.3,115.5,1372.274,,CH = casing height of well = 149.7 cm
01/01/11,2:30,304.3,13.3,115.6,1372.273,,h = height of water above sensor (from pzhd column)
01/01/11,3:00,303.9,13.3,116.0,1372.269,,
01/01/11,3:30,303.9,13.3,116.0,1372.269,,WT elevation:
01/01/11,4:00,304.5,13.3,115.4,1372.275,,Sensor elev = 1369.230 m asl
01/01/11,4:30,303.7,13.3,116.2,1372.267,,WT elev = sensor elev + h (from pzhd column)
01/01/11,5:00,303.8,13.3,116.1,1372.268,,
01/01/11,5:30,302.6,13.3,117.3,1372.256,,
01/01/11,6:00,302.0,13.3,117.9,1372.250,,Dates with missing data (# 0.5 hr data points):
01/01/11,6:30,303.0,13.3,116.9,1372.260,,3/16 (2).
01/01/11,7:00,302.3,13.3,117.6,1372.253,,
01/01/11,7:30,302.3,13.3,117.6,1372.253,,
01/01/11,8:00,302.8,13.3,117.1,1372.258,,Dates w/missing T data:
01/01/11,8:30,303.7,13.3,116.2,1372.267,,"Feb 9, 15, Mar 16, May 8, Jun 17, Aug 15, "
01/01/11,9:00,303.7,13.3,116.2,1372.267,,"Sep 27, Oct 9, Nov 17."
01/01/11,9:30,303.4,13.3,116.5,1372.264,,
01/01/11,10:00,304.0,13.3,115.9,1372.270,,
01/01/11,10:30,304.3,13.3,115.6,1372.273,,
01/01/11,11:00,304.8,13.3,115.1,1372.278,,
01/01/11,11:30,305.3,13.3,114.6,1372.283,,
01/01/11,12:00,306.1,13.3,113.8,1372.291,,
01/01/11,12:30,306.7,13.3,113.2,1372.297,,
01/01/11,13:00,306.9,13.3,113.0,1372.299,,
01/01/11,13:30,306.7,13.3,113.2,1372.297,,
01/01/11,14:00,306.5,13.3,113.4,1372.295,,
01/01/11,14:30,306.9,13.3,113.0,1372.299,,
01/01/11,15:00,307.3,13.3,112.6,1372.303,,
01/01/11,15:30,306.9,13.3,113.0,1372.299,,
01/01/11,16:00,306.8,13.3,113.1,1372.298,,
01/01/11,16:30,307.1,13.3,112.8,1372.301,,
01/01/11,17:00,306.9,13.3,113.0,1372.299,,
01/01/11,17:30,306.6,13.3,113.3,1372.296,,
01/01/11,18:00,305.9,13.3,114.0,1372.289,,
01/01/11,18:30,305.8,13.3,114.1,1372.288,,
01/01/11,19:00,305.3,13.3,114.6,1372.283,,
01/01/11,19:30,305.2,13.3,114.7,1372.282,,
01/01/11,20:00,305.2,13.3,114.7,1372.282,,
01/01/11,20:30,304.6,13.3,115.3,1372.276,,
01/01/11,21:00,304.4,13.3,115.5,1372.274,,
01/01/11,21:30,305.1,13.3,114.8,1372.281,,
01/01/11,22:00,304.9,13.3,115.0,1372.279,,
01/01/11,22:30,305.5,13.3,114.4,1372.285,,
01/01/11,23:00,305.3,13.3,114.6,1372.283,,
01/01/11,23:30,305.6,13.3,114.3,1372.286,,
01/02/11,0:00,305.4,13.3,114.5,1372.284,,
01/02/11,0:30,305.5,13.3,114.4,1372.285,,
01/02/11,1:00,306.2,13.3,113.7,1372.292,,
01/02/11,1:30,305.5,13.3,114.4,1372.285,,
01/02/11,2:00,305.3,13.3,114.6,1372.283,,
01/02/11,2:30,306.3,13.3,113.6,1372.293,,
01/02/11,3:00,305.6,13.3,114.3,1372.286,,
01/02/11,3:30,306.3,13.3,113.6,1372.293,,
01/02/11,4:00,306.5,13.3,113.4,1372.295,,
01/02/11,4:30,306.0,13.3,113.9,1372.290,,
01/02/11,5:00,306.0,13.3,113.9,1372.290,,
01/02/11,5:30,306.1,13.3,113.8,1372.291,,
01/02/11,6:00,305.6,13.3,114.3,1372.286,,
01/02/11,6:30,306.0,13.3,113.9,1372.290,,
01/02/11,7:00,306.1,13.3,113.8,1372.291,,
01/02/11,7:30,306.4,13.3,113.5,1372.294,,
01/02/11,8:00,306.2,13.3,113.7,1372.292,,
01/02/11,8:30,306.1,13.3,113.8,1372.291,,
01/02/11,9:00,306.7,13.3,113.2,1372.297,,
01/02/11,9:30,305.9,13.3,114.0,1372.289,,
01/02/11,10:00,305.5,13.3,114.4,1372.285,,
01/02/11,10:30,306.0,13.2,113.9,1372.290,,
01/02/11,11:00,305.8,13.3,114.1,1372.288,,
01/02/11,11:30,306.2,13.3,113.7,1372.292,,
01/02/11,12:00,306.8,13.3,113.1,1372.298,,
01/02/11,12:30,306.6,13.3,113.3,1372.296,,
01/02/11,13:00,306.9,13.3,113.0,1372.299,,
01/02/11,13:30,306.5,13.3,113.4,1372.295,,
01/02/11,14:00,306.7,13.3,113.2,1372.297,,
01/02/11,14:30,307.1,13.3,112.8,1372.301,,
01/02/11,15:00,307.2,13.3,112.7,1372.302,,
01/02/11,15:30,307.5,13.3,112.4,1372.305,,
01/02/11,16:00,307.3,13.3,112.6,1372.303,,
01/02/11,16:30,307.3,13.3,112.6,1372.303,,
01/02/11,17:00,307.5,13.3,112.4,1372.305,,
01/02/11,17:30,307.2,13.3,112.7,1372.302,,
01/02/11,18:00,306.6,13.3,113.3,1372.296,,
01/02/11,18:30,306.8,13.3,113.1,1372.298,,
01/02/11,19:00,306.4,13.3,113.5,1372.294,,
01/02/11,19:30,306.4,13.3,113.5,1372.294,,
01/02/11,20:00,306.4,13.3,113.5,1372.294,,
01/02/11,20:30,306.7,13.3,113.2,1372.297,,
01/02/11,21:00,306.4,13.3,113.5,1372.294,,
01/02/11,21:30,306.5,13.3,113.4,1372.295,,
01/02/11,22:00,306.4,13.3,113.5,1372.294,,
01/02/11,22:30,306.1,13.3,113.8,1372.291,,
01/02/11,23:00,306.4,13.3,113.5,1372.294,,
01/02/11,23:30,306.2,13.3,113.7,1372.292,,
01/03/11,0:00,307.0,13.3,112.9,1372.300,,
01/03/11,0:30,306.3,13.3,113.6,1372.293,,
01/03/11,1:00,306.4,13.3,113.5,1372.294,,
01/03/11,1:30,306.7,13.3,113.2,1372.297,,
01/03/11,2:00,306.4,13.3,113.5,1372.294,,
01/03/11,2:30,306.4,13.3,113.5,1372.294,,
01/03/11,3:00,306.3,13.3,113.6,1372.293,,
01/03/11,3:30,307.0,13.3,112.9,1372.300,,
01/03/11,4:00,306.6,13.3,113.3,1372.296,,
01/03/11,4:30,306.7,13.3,113.2,1372.297,,
01/03/11,5:00,306.7,13.3,113.2,1372.297,,
01/03/11,5:30,306.9,13.3,113.0,1372.299,,
01/03/11,6:00,306.5,13.3,113.4,1372.295,,
01/03/11,6:30,306.7,13.3,113.2,1372.297,,
01/03/11,7:00,306.6,13.3,113.3,1372.296,,
01/03/11,7:30,306.6,13.3,113.3,1372.296,,
01/03/11,8:00,306.4,13.2,113.5,1372.294,,
01/03/11,8:30,306.4,13.3,113.5,1372.294,,
01/03/11,9:00,305.8,13.3,114.1,1372.288,,
01/03/11,9:30,305.8,13.3,114.1,1372.288,,
01/03/11,10:00,306.0,13.3,113.9,1372.290,,
01/03/11,10:30,306.4,13.3,113.5,1372.294,,
01/03/11,11:00,306.5,13.3,113.4,1372.295,,
01/03/11,11:30,307.0,13.3,112.9,1372.300,,
01/03/11,12:00,307.0,13.3,112.9,1372.300,,
01/03/11,12:30,307.4,13.3,112.5,1372.304,,
01/03/11,13:00,307.7,13.3,112.2,1372.307,,
01/03/11,13:30,307.5,13.3,112.4,1372.305,,
01/03/11,14:00,307.5,13.3,112.4,1372.305,,
01/03/11,14:30,307.5,13.3,112.4,1372.305,,
01/03/11,15:00,307.6,13.3,112.3,1372.306,,
01/03/11,15:30,307.4,13.3,112.5,1372.304,,
01/03/11,16:00,307.2,13.3,112.7,1372.302,,
01/03/11,16:30,307.0,13.3,112.9,1372.300,,
01/03/11,17:00,307.1,13.3,112.8,1372.301,,
01/03/11,17:30,306.7,13.3,113.2,1372.297,,
01/03/11,18:00,306.5,13.3,113.4,1372.295,,
01/03/11,18:30,306.2,13.3,113.7,1372.292,,
01/03/11,19:00,306.2,13.3,113.7,1372.292,,
01/03/11,19:30,305.8,13.3,114.1,1372.288,,
01/03/11,20:00,305.8,13.3,114.1,1372.288,,
01/03/11,20:30,306.0,13.3,113.9,1372.290,,
01/03/11,21:00,306.2,13.3,113.7,1372.292,,
01/03/11,21:30,306.2,13.3,113.7,1372.292,,
01/03/11,22:00,305.6,13.3,114.3,1372.286,,
01/03/11,22:30,305.9,13.3,114.0,1372.289,,
01/03/11,23:00,306.0,13.3,113.9,1372.290,,
01/03/11,23:30,305.3,13.3,114.6,1372.283,,
01/04/11,0:00,306.2,13.3,113.7,1372.292,,
01/04/11,0:30,305.9,13.3,114.0,1372.289,,
01/04/11,1:00,305.6,13.2,114.3,1372.286,,
01/04/11,1:30,305.4,13.3,114.5,1372.284,,
01/04/11,2:00,305.6,13.3,114.3,1372.286,,
01/04/11,2:30,306.3,13.3,113.6,1372.293,,
01/04/11,3:00,306.1,13.3,113.8,1372.291,,
01/04/11,3:30,306.0,13.3,113.9,1372.290,,
01/04/11,4:00,305.9,13.3,114.0,1372.289,,
01/04/11,4:30,305.6,13.3,114.3,1372.286,,
01/04/11,5:00,305.8,13.3,114.1,1372.288,,
01/04/11,5:30,306.0,13.3,113.9,1372.290,,
01/04/11,6:00,305.8,13.3,114.1,1372.288,,
01/04/11,6:30,306.2,13.3,113.7,1372.292,,
01/04/11,7:00,306.1,13.3,113.8,1372.291,,
01/04/11,7:30,306.0,13.3,113.9,1372.290,,
01/04/11,8:00,305.7,13.3,114.2,1372.287,,
01/04/11,8:30,306.2,13.3,113.7,1372.292,,
01/04/11,9:00,306.2,13.3,113.7,1372.292,,
01/04/11,9:30,305.1,13.3,114.8,1372.281,,
01/04/11,10:00,305.3,13.3,114.6,1372.283,,
01/04/11,10:30,305.6,13.2,114.3,1372.286,,
01/04/11,11:00,305.8,13.3,114.1,1372.288,,
01/04/11,11:30,306.1,13.2,113.8,1372.291,,
01/04/11,12:00,306.2,13.2,113.7,1372.292,,
01/04/11,12:30,306.6,13.3,113.3,1372.296,,
01/04/11,13:00,306.2,13.3,113.7,1372.292,,
01/04/11,13:30,306.7,13.3,113.2,1372.297,,
01/04/11,14:00,306.5,13.3,113.4,1372.295,,
01/04/11,14:30,306.7,13.3,113.2,1372.297,,
01/04/11,15:00,306.4,13.3,113.5,1372.294,,
01/04/11,15:30,306.6,13.3,113.3,1372.296,,
01/04/11,16:00,306.1,13.3,113.8,1372.291,,
01/04/11,16:30,305.9,13.3,114.0,1372.289,,
01/04/11,17:00,305.9,13.3,114.0,1372.289,,
01/04/11,17:30,305.6,13.3,114.3,1372.286,,
01/04/11,18:00,305.7,13.3,114.2,1372.287,,
01/04/11,18:30,305.3,13.3,114.6,1372.283,,
01/04/11,19:00,305.4,13.3,114.5,1372.284,,
01/04/11,19:30,305.5,13.2,114.4,1372.285,,
01/04/11,20:00,305.3,13.3,114.6,1372.283,,
01/04/11,20:30,305.1,13.3,114.8,1372.281,,
01/04/11,21:00,305.4,13.3,114.5,1372.284,,
01/04/11,21:30,305.1,13.3,114.8,1372.281,,
01/04/11,22:00,304.7,13.3,115.2,1372.277,,
01/04/11,22:30,304.8,13.3,115.1,1372.278,,
01/04/11,23:00,304.6,13.3,115.3,1372.276,,
01/04/11,23:30,305.0,13.3,114.9,1372.280,,
01/05/11,0:00,304.6,13.2,115.3,1372.276,,
01/05/11,0:30,304.7,13.3,115.2,1372.277,,
01/05/11,1:00,305.4,13.3,114.5,1372.284,,
01/05/11,1:30,305.1,13.2,114.8,1372.281,,
01/05/11,2:00,305.1,13.3,114.8,1372.281,,
01/05/11,2:30,305.6,13.2,114.3,1372.286,,
01/05/11,3:00,305.6,13.3,114.3,1372.286,,
01/05/11,3:30,305.5,13.3,114.4,1372.285,,
01/05/11,4:00,305.2,13.3,114.7,1372.282,,
01/05/11,4:30,305.3,13.3,114.6,1372.283,,
01/05/11,5:00,305.2,13.2,114.7,1372.282,,
01/05/11,5:30,305.5,13.3,114.4,1372.285,,
01/05/11,6:00,305.8,13.3,114.1,1372.288,,
01/05/11,6:30,304.7,13.3,115.2,1372.277,,
01/05/11,7:00,305.2,13.2,114.7,1372.282,,
01/05/11,7:30,304.1,13.2,115.8,1372.271,,
01/05/11,8:00,304.8,13.3,115.1,1372.278,,
01/05/11,8:30,304.5,13.3,115.4,1372.275,,
01/05/11,9:00,305.0,13.3,114.9,1372.280,,
01/05/11,9:30,303.7,13.3,116.2,1372.267,,
01/05/11,10:00,304.3,13.2,115.6,1372.273,,
01/05/11,10:30,304.8,13.2,115.1,1372.278,,
01/05/11,11:00,305.0,13.2,114.9,1372.280,,
01/05/11,11:30,305.6,13.2,114.3,1372.286,,
01/05/11,12:00,305.9,13.3,114.0,1372.289,,
01/05/11,12:30,306.1,13.3,113.8,1372.291,,
01/05/11,13:00,306.3,13.3,113.6,1372.293,,
01/05/11,13:30,306.1,13.2,113.8,1372.291,,
01/05/11,14:00,306.0,13.3,113.9,1372.290,,
01/05/11,14:30,306.2,13.2,113.7,1372.292,,
01/05/11,15:00,305.8,13.2,114.1,1372.288,,
01/05/11,15:30,305.8,13.3,114.1,1372.288,,
01/05/11,16:00,306.2,13.2,113.7,1372.292,,
01/05/11,16:30,306.3,13.2,113.6,1372.293,,
01/05/11,17:00,305.8,13.3,114.1,1372.288,,
01/05/11,17:30,306.2,13.2,113.7,1372.292,,
01/05/11,18:00,305.4,13.2,114.5,1372.284,,
01/05/11,18:30,305.7,13.2,114.2,1372.287,,
01/05/11,19:00,305.2,13.3,114.7,1372.282,,
01/05/11,19:30,305.3,13.2,114.6,1372.283,,
01/05/11,20:00,305.4,13.2,114.5,1372.284,,
01/05/11,20:30,305.3,13.2,114.6,1372.283,,
01/05/11,21:00,305.9,13.2,114.0,1372.289,,
01/05/11,21:30,305.8,13.2,114.1,1372.288,,
01/05/11,22:00,305.4,13.2,114.5,1372.284,,
01/05/11,22:30,305.7,13.2,114.2,1372.287,,
01/05/11,23:00,306.2,13.2,113.7,1372.292,,
01/05/11,23:30,305.9,13.2,114.0,1372.289,,
01/06/11,0:00,305.8,13.2,114.1,1372.288,,
01/06/11,0:30,305.5,13.2,114.4,1372.285,,
01/06/11,1:00,304.8,13.2,115.1,1372.278,,
01/06/11,1:30,305.1,13.3,114.8,1372.281,,
01/06/11,2:00,305.4,13.2,114.5,1372.284,,
01/06/11,2:30,305.0,13.2,114.9,1372.280,,
01/06/11,3:00,305.7,13.2,114.2,1372.287,,
01/06/11,3:30,305.3,13.2,114.6,1372.283,,
01/06/11,4:00,306.1,13.2,113.8,1372.291,,
01/06/11,4:30,306.2,13.2,113.7,1372.292,,
01/06/11,5:00,306.1,13.2,113.8,1372.291,,
01/06/11,5:30,305.7,13.2,114.2,1372.287,,
01/06/11,6:00,306.3,13.2,113.6,1372.293,,
01/06/11,6:30,306.0,13.2,113.9,1372.290,,
01/06/11,7:00,306.1,13.2,113.8,1372.291,,
01/06/11,7:30,306.2,13.2,113.7,1372.292,,
01/06/11,8:00,306.3,13.2,113.6,1372.293,,
01/06/11,8:30,306.6,13.2,113.3,1372.296,,
01/06/11,9:00,305.8,13.2,114.1,1372.288,,
01/06/11,9:30,305.8,13.2,114.1,1372.288,,
01/06/11,10:00,306.0,13.2,113.9,1372.290,,
01/06/11,10:30,305.4,13.2,114.5,1372.284,,
01/06/11,11:00,306.0,13.2,113.9,1372.290,,
01/06/11,11:30,305.7,13.2,114.2,1372.287,,
01/06/11,12:00,306.1,13.2,113.8,1372.291,,
01/06/11,12:30,306.5,13.2,113.4,1372.295,,
01/06/11,13:00,306.4,13.2,113.5,1372.294,,
01/06/11,13:30,305.8,13.2,114.1,1372.288,,
01/06/11,14:00,306.5,13.2,113.4,1372.295,,
01/06/11,14:30,306.3,13.2,113.6,1372.293,,
01/06/11,15:00,306.0,13.2,113.9,1372.290,,
01/06/11,15:30,305.9,13.2,114.0,1372.289,,
01/06/11,16:00,306.5,13.2,113.4,1372.295,,
01/06/11,16:30,306.0,13.2,113.9,1372.290,,
01/06/11,17:00,306.5,13.1,113.4,1372.295,,
01/06/11,17:30,306.6,13.2,113.3,1372.296,,
01/06/11,18:00,306.0,13.2,113.9,1372.290,,
01/06/11,18:30,306.0,13.2,113.9,1372.290,,
01/06/11,19:00,306.1,13.2,113.8,1372.291,,
01/06/11,19:30,305.4,13.2,114.5,1372.284,,
01/06/11,20:00,306.0,13.2,113.9,1372.290,,
01/06/11,20:30,305.7,13.2,114.2,1372.287,,
01/06/11,21:00,306.0,13.2,113.9,1372.290,,
01/06/11,21:30,306.4,13.2,113.5,1372.294,,
01/06/11,22:00,306.3,13.2,113.6,1372.293,,
01/06/11,22:30,305.7,13.2,114.2,1372.287,,
01/06/11,23:00,306.1,13.2,113.8,1372.291,,
01/06/11,23:30,305.8,13.2,114.1,1372.288,,
01/07/11,0:00,306.2,13.2,113.7,1372.292,,
01/07/11,0:30,306.2,13.2,113.7,1372.292,,
01/07/11,1:00,306.4,13.2,113.5,1372.294,,
01/07/11,1:30,306.5,13.2,113.4,1372.295,,
01/07/11,2:00,306.3,13.2,113.6,1372.293,,
01/07/11,2:30,306.4,13.2,113.5,1372.294,,
01/07/11,3:00,306.4,13.2,113.5,1372.294,,
01/07/11,3:30,306.2,13.2,113.7,1372.292,,
01/07/11,4:00,306.1,13.2,113.8,1372.291,,
01/07/11,4:30,306.0,13.2,113.9,1372.290,,
01/07/11,5:00,306.0,13.2,113.9,1372.290,,
01/07/11,5:30,306.5,13.2,113.4,1372.295,,
01/07/11,6:00,306.6,13.2,113.3,1372.296,,
01/07/11,6:30,306.6,13.2,113.3,1372.296,,
01/07/11,7:00,306.7,13.2,113.2,1372.297,,
01/07/11,7:30,306.6,13.2,113.3,1372.296,,
01/07/11,8:00,306.5,13.2,113.4,1372.295,,
01/07/11,8:30,306.1,13.2,113.8,1372.291,,
01/07/11,9:00,306.1,13.2,113.8,1372.291,,
01/07/11,9:30,306.1,13.2,113.8,1372.291,,
01/07/11,10:00,305.8,13.2,114.1,1372.288,,
01/07/11,10:30,306.0,13.2,113.9,1372.290,,
01/07/11,11:00,306.1,13.2,113.8,1372.291,,
01/07/11,11:30,306.2,13.2,113.7,1372.292,,
01/07/11,12:00,306.2,13.2,113.7,1372.292,,
01/07/11,12:30,306.8,13.2,113.1,1372.298,,
01/07/11,13:00,306.5,13.2,113.4,1372.295,,
01/07/11,13:30,306.6,13.2,113.3,1372.296,,
01/07/11,14:00,306.5,13.2,113.4,1372.295,,
01/07/11,14:30,306.8,13.2,113.1,1372.298,,
01/07/11,15:00,306.5,13.2,113.4,1372.295,,
01/07/11,15:30,306.7,13.2,113.2,1372.297,,
01/07/11,16:00,306.6,13.2,113.3,1372.296,,
01/07/11,16:30,306.8,13.2,113.1,1372.298,,
01/07/11,17:00,306.6,13.2,113.3,1372.296,,
01/07/11,17:30,306.4,13.2,113.5,1372.294,,
01/07/11,18:00,306.0,13.2,113.9,1372.290,,
01/07/11,18:30,306.2,13.2,113.7,1372.292,,
01/07/11,19:00,305.7,13.2,114.2,1372.287,,
01/07/11,19:30,306.0,13.2,113.9,1372.290,,
01/07/11,20:00,305.6,13.2,114.3,1372.286,,
01/07/11,20:30,305.8,13.2,114.1,1372.288,,
01/07/11,21:00,305.8,13.2,114.1,1372.288,,
01/07/11,21:30,306.0,13.2,113.9,1372.290,,
01/07/11,22:00,305.3,13.2,114.6,1372.283,,
01/07/11,22:30,306.3,13.2,113.6,1372.293,,
01/07/11,23:00,305.7,13.2,114.2,1372.287,,
01/07/11,23:30,306.0,13.2,113.9,1372.290,,
01/08/11,0:00,305.5,13.2,114.4,1372.285,,
01/08/11,0:30,305.7,13.2,114.2,1372.287,,
01/08/11,1:00,306.5,13.2,113.4,1372.295,,
01/08/11,1:30,306.2,13.2,113.7,1372.292,,
01/08/11,2:00,306.2,13.1,113.7,1372.292,,
01/08/11,2:30,306.2,13.2,113.7,1372.292,,
01/08/11,3:00,306.5,13.2,113.4,1372.295,,
01/08/11,3:30,306.4,13.1,113.5,1372.294,,
01/08/11,4:00,306.3,13.2,113.6,1372.293,,
01/08/11,4:30,306.0,13.1,113.9,1372.290,,
01/08/11,5:00,306.2,13.2,113.7,1372.292,,
01/08/11,5:30,306.5,13.2,113.4,1372.295,,
01/08/11,6:00,307.0,13.1,112.9,1372.300,,
01/08/11,6:30,306.2,13.2,113.7,1372.292,,
01/08/11,7:00,306.4,13.2,113.5,1372.294,,
01/08/11,7:30,306.1,13.2,113.8,1372.291,,
01/08/11,8:00,305.9,13.2,114.0,1372.289,,
01/08/11,8:30,306.6,13.2,113.3,1372.296,,
01/08/11,9:00,306.0,13.2,113.9,1372.290,,
01/08/11,9:30,305.2,13.1,114.7,1372.282,,
01/08/11,10:00,305.6,13.2,114.3,1372.286,,
01/08/11,10:30,305.5,13.2,114.4,1372.285,,
01/08/11,11:00,306.0,13.2,113.9,1372.290,,
01/08/11,11:30,306.7,13.2,113.2,1372.297,,
01/08/11,12:00,306.4,13.2,113.5,1372.294,,
01/08/11,12:30,306.9,13.2,113.0,1372.299,,
01/08/11,13:00,306.9,13.2,113.0,1372.299,,
01/08/11,13:30,306.4,13.2,113.5,1372.294,,
01/08/11,14:00,306.5,13.1,113.4,1372.295,,
01/08/11,14:30,305.9,13.2,114.0,1372.289,,
01/08/11,15:00,305.8,13.2,114.1,1372.288,,
01/08/11,15:30,306.0,13.2,113.9,1372.290,,
01/08/11,16:00,305.5,13.2,114.4,1372.285,,
01/08/11,16:30,306.1,13.2,113.8,1372.291,,
01/08/11,17:00,305.8,13.2,114.1,1372.288,,
01/08/11,17:30,306.3,13.2,113.6,1372.293,,
01/08/11,18:00,305.4,13.2,114.5,1372.284,,
01/08/11,18:30,305.4,13.1,114.5,1372.284,,
01/08/11,19:00,305.3,13.1,114.6,1372.283,,
01/08/11,19:30,305.5,13.1,114.4,1372.285,,
01/08/11,20:00,305.3,13.1,114.6,1372.283,,
01/08/11,20:30,305.6,13.1,114.3,1372.286,,
01/08/11,21:00,304.6,13.2,115.3,1372.276,,
01/08/11,21:30,305.0,13.2,114.9,1372.280,,
01/08/11,22:00,305.2,13.1,114.7,1372.282,,
01/08/11,22:30,304.9,13.2,115.0,1372.279,,
01/08/11,23:00,305.6,13.2,114.3,1372.286,,
01/08/11,23:30,305.4,13.1,114.5,1372.284,,
01/09/11,0:00,305.3,13.1,114.6,1372.283,,
01/09/11,0:30,305.6,13.2,114.3,1372.286,,
01/09/11,1:00,305.5,13.2,114.4,1372.285,,
01/09/11,1:30,305.7,13.1,114.2,1372.287,,
01/09/11,2:00,305.4,13.2,114.5,1372.284,,
01/09/11,2:30,305.3,13.1,114.6,1372.283,,
01/09/11,3:00,305.1,13.1,114.8,1372.281,,
01/09/11,3:30,304.8,13.2,115.1,1372.278,,
01/09/11,4:00,305.5,13.2,114.4,1372.285,,
01/09/11,4:30,305.5,13.2,114.4,1372.285,,
01/09/11,5:00,305.0,13.2,114.9,1372.280,,
01/09/11,5:30,305.4,13.2,114.5,1372.284,,
01/09/11,6:00,305.0,13.2,114.9,1372.280,,
01/09/11,6:30,305.2,13.1,114.7,1372.282,,
01/09/11,7:00,305.4,13.1,114.5,1372.284,,
01/09/11,7:30,305.0,13.1,114.9,1372.280,,
01/09/11,8:00,304.7,13.1,115.2,1372.277,,
01/09/11,8:30,305.0,13.1,114.9,1372.280,,
01/09/11,9:00,304.8,13.1,115.1,1372.278,,
01/09/11,9:30,303.9,13.2,116.0,1372.269,,
01/09/11,10:00,304.4,13.2,115.5,1372.274,,
01/09/11,10:30,304.5,13.2,115.4,1372.275,,
01/09/11,11:00,305.0,13.2,114.9,1372.280,,
01/09/11,11:30,305.1,13.2,114.8,1372.281,,
01/09/11,12:00,305.3,13.2,114.6,1372.283,,
01/09/11,12:30,305.3,13.2,114.6,1372.283,,
01/09/11,13:00,305.4,13.2,114.5,1372.284,,
01/09/11,13:30,305.6,13.2,114.3,1372.286,,
01/09/11,14:00,305.3,13.1,114.6,1372.283,,
01/09/11,14:30,304.7,13.1,115.2,1372.277,,
01/09/11,15:00,304.9,13.1,115.0,1372.279,,
01/09/11,15:30,305.0,13.2,114.9,1372.280,,
01/09/11,16:00,304.6,13.2,115.3,1372.276,,
01/09/11,16:30,304.7,13.1,115.2,1372.277,,
01/09/11,17:00,304.8,13.1,115.1,1372.278,,
01/09/11,17:30,305.2,13.1,114.7,1372.282,,
01/09/11,18:00,304.9,13.1,115.0,1372.279,,
01/09/11,18:30,304.7,13.2,115.2,1372.277,,
01/09/11,19:00,304.3,13.1,115.6,1372.273,,
01/09/11,19:30,304.4,13.1,115.5,1372.274,,
01/09/11,20:00,304.4,13.1,115.5,1372.274,,
01/09/11,20:30,305.0,13.2,114.9,1372.280,,
01/09/11,21:00,304.8,13.1,115.1,1372.278,,
01/09/11,21:30,304.9,13.1,115.0,1372.279,,
01/09/11,22:00,304.6,13.1,115.3,1372.276,,
01/09/11,22:30,304.8,13.1,115.1,1372.278,,
01/09/11,23:00,305.0,13.1,114.9,1372.280,,
01/09/11,23:30,305.2,13.1,114.7,1372.282,,
01/10/11,0:00,305.4,13.1,114.5,1372.284,,
01/10/11,0:30,305.5,13.1,114.4,1372.285,,
01/10/11,1:00,305.4,13.1,114.5,1372.284,,
01/10/11,1:30,305.0,13.1,114.9,1372.280,,
01/10/11,2:00,305.1,13.2,114.8,1372.281,,
01/10/11,2:30,305.0,13.1,114.9,1372.280,,
01/10/11,3:00,305.5,13.1,114.4,1372.285,,
01/10/11,3:30,304.4,13.2,115.5,1372.274,,
01/10/11,4:00,304.4,13.2,115.5,1372.274,,
01/10/11,4:30,304.3,13.1,115.6,1372.273,,
01/10/11,5:00,304.7,13.1,115.2,1372.277,,
01/10/11,5:30,303.9,13.1,116.0,1372.269,,
01/10/11,6:00,304.1,13.1,115.8,1372.271,,
01/10/11,6:30,304.4,13.1,115.5,1372.274,,
01/10/11,7:00,304.7,13.1,115.2,1372.277,,
01/10/11,7:30,304.2,13.1,115.7,1372.272,,
01/10/11,8:00,304.3,13.1,115.6,1372.273,,
01/10/11,8:30,304.4,13.1,115.5,1372.274,,
01/10/11,9:00,304.0,13.1,115.9,1372.270,,
01/10/11,9:30,303.9,13.1,116.0,1372.269,,
01/10/11,10:00,303.7,13.1,116.2,1372.267,,
01/10/11,10:30,303.5,13.2,116.4,1372.265,,
01/10/11,11:00,304.1,13.1,115.8,1372.271,,
01/10/11,11:30,304.1,13.2,115.8,1372.271,,
01/10/11,12:00,304.6,13.1,115.3,1372.276,,
01/10/11,12:30,304.9,13.1,115.0,1372.279,,
01/10/11,13:00,305.1,13.1,114.8,1372.281,,
01/10/11,13:30,305.0,13.2,114.9,1372.280,,
01/10/11,14:00,304.6,13.1,115.3,1372.276,,
01/10/11,14:30,304.7,13.1,115.2,1372.277,,
01/10/11,15:00,304.6,13.1,115.3,1372.276,,
01/10/11,15:30,304.7,13.1,115.2,1372.277,,
01/10/11,16:00,304.9,13.1,115.0,1372.279,,
01/10/11,16:30,304.7,13.1,115.2,1372.277,,
01/10/11,17:00,304.2,13.1,115.7,1372.272,,
01/10/11,17:30,304.1,13.1,115.8,1372.271,,
01/10/11,18:00,303.8,13.1,116.1,1372.268,,
01/10/11,18:30,303.7,13.1,116.2,1372.267,,
01/10/11,19:00,303.0,13.1,116.9,1372.260,,
01/10/11,19:30,303.4,13.1,116.5,1372.264,,
01/10/11,20:00,303.0,13.1,116.9,1372.260,,
01/10/11,20:30,303.3,13.1,116.6,1372.263,,
01/10/11,21:00,302.6,13.1,117.3,1372.256,,
01/10/11,21:30,303.0,13.1,116.9,1372.260,,
01/10/11,22:00,303.1,13.1,116.8,1372.261,,
01/10/11,22:30,302.8,13.1,117.1,1372.258,,
01/10/11,23:00,303.1,13.1,116.8,1372.261,,
01/10/11,23:30,303.2,13.2,116.7,1372.262,,
01/11/11,0:00,303.2,13.1,116.7,1372.262,,
01/11/11,0:30,303.3,13.1,116.6,1372.263,,
01/11/11,1:00,302.9,13.1,117.0,1372.259,,
01/11/11,1:30,303.1,13.1,116.8,1372.261,,
01/11/11,2:00,303.1,13.1,116.8,1372.261,,
01/11/11,2:30,302.5,13.1,117.4,1372.255,,
01/11/11,3:00,303.2,13.1,116.7,1372.262,,
01/11/11,3:30,303.5,13.1,116.4,1372.265,,
01/11/11,4:00,303.3,13.1,116.6,1372.263,,
01/11/11,4:30,303.2,13.1,116.7,1372.262,,
01/11/11,5:00,303.4,13.1,116.5,1372.264,,
01/11/11,5:30,303.5,13.1,116.4,1372.265,,
01/11/11,6:00,303.2,13.1,116.7,1372.262,,
01/11/11,6:30,303.2,13.1,116.7,1372.262,,
01/11/11,7:00,302.9,13.1,117.0,1372.259,,
01/11/11,7:30,302.8,13.1,117.1,1372.258,,
01/11/11,8:00,302.9,13.1,117.0,1372.259,,
01/11/11,8:30,303.4,13.1,116.5,1372.264,,
01/11/11,9:00,303.9,13.1,116.0,1372.269,,
01/11/11,9:30,303.3,13.2,116.6,1372.263,,
01/11/11,10:00,303.2,13.1,116.7,1372.262,,
01/11/11,10:30,303.7,13.1,116.2,1372.267,,
01/11/11,11:00,303.9,13.1,116.0,1372.269,,
01/11/11,11:30,304.0,13.1,115.9,1372.270,,
01/11/11,12:00,304.1,13.1,115.8,1372.271,,
01/11/11,12:30,303.7,13.1,116.2,1372.267,,
01/11/11,13:00,304.8,13.1,115.1,1372.278,,
01/11/11,13:30,304.6,13.1,115.3,1372.276,,
01/11/11,14:00,304.3,13.1,115.6,1372.273,,
01/11/11,14:30,304.0,13.1,115.9,1372.270,,
01/11/11,15:00,304.4,13.1,115.5,1372.274,,
01/11/11,15:30,304.7,13.1,115.2,1372.277,,
01/11/11,16:00,304.5,13.1,115.4,1372.275,,
01/11/11,16:30,304.4,13.1,115.5,1372.274,,
01/11/11,17:00,304.9,13.1,115.0,1372.279,,
01/11/11,17:30,304.2,13.1,115.7,1372.272,,
01/11/11,18:00,304.4,13.1,115.5,1372.274,,
01/11/11,18:30,304.8,13.1,115.1,1372.278,,
01/11/11,19:00,304.1,13.1,115.8,1372.271,,
01/11/11,19:30,303.9,13.1,116.0,1372.269,,
01/11/11,20:00,304.4,13.1,115.5,1372.274,,
01/11/11,20:30,304.5,13.1,115.4,1372.275,,
01/11/11,21:00,304.1,13.1,115.8,1372.271,,
01/11/11,21:30,304.3,13.1,115.6,1372.273,,
01/11/11,22:00,304.9,13.1,115.0,1372.279,,
01/11/11,22:30,304.8,13.1,115.1,1372.278,,
01/11/11,23:00,305.3,13.1,114.6,1372.283,,
01/11/11,23:30,304.8,13.1,115.1,1372.278,,
01/12/11,0:00,305.4,13.1,114.5,1372.284,,
01/12/11,0:30,305.2,13.1,114.7,1372.282,,
01/12/11,1:00,305.6,13.1,114.3,1372.286,,
01/12/11,1:30,305.6,13.1,114.3,1372.286,,
01/12/11,2:00,305.1,13.1,114.8,1372.281,,
01/12/11,2:30,305.5,13.1,114.4,1372.285,,
01/12/11,3:00,305.1,13.1,114.8,1372.281,,
01/12/11,3:30,305.8,13.1,114.1,1372.288,,
01/12/11,4:00,305.6,13.1,114.3,1372.286,,
01/12/11,4:30,305.4,13.1,114.5,1372.284,,
01/12/11,5:00,305.9,13.1,114.0,1372.289,,